{"data":{"norad_id":39483,"intl_designator":"2013-076A","name":"COSMOS 2488 (RODNIK-S 7)","alt_names":[],"object_type":"PAYLOAD","status":"ACTIVE","operator":null,"country":"CIS","launch_date":"2013-12-25","launch_site_code":"PLMSC","launch_vehicle":null,"mission":null,"orbit_class":"UNKNOWN","rcs_meters":1.5568,"size_class":null,"mass_kg":null,"dimensions":null,"purposes":[],"wikipedia_slug":null,"has_3d_model":false,"image_url":null,"decayed_at":null,"tle_current":{"epoch":"2026-05-25T04:14:50.826624Z","epoch_age_seconds":66634,"freshness":"FRESH","line1":"1 39483U 13076A   26145.17697716  .00000004  00000+0 -46674-4 0  9991","line2":"2 39483  82.4845 183.0315 0020411 143.0332 217.2158 12.42904866563030","mean_motion":12.42904866,"eccentricity":0.0020411,"inclination_deg":82.4845,"raan_deg":183.0315,"arg_perigee_deg":143.0332,"mean_anomaly_deg":217.2158,"bstar":-4.6674e-5,"rev_number":56303,"period_min":115.8576202726,"perigee_km":1478.2446290439,"apogee_km":1510.3815447887,"semimajor_km":7872.4500869163,"source":"CELESTRAK","updated_at":"2026-05-25T13:37:55.407558Z"}}}